User: anonymous   Login
Location: Unspecified
(0.0000°N, 0.0000°E)
Time: 07:04:15
(UTC+00:00)
Language:

Meteor 2-8 - Orbit

View from above orbital plane
View from above orbital plane
View from above satellite
View from above satellite

Ground track
Ground track

The orbit data is extracted from the following two-line orbital elements,

1 13113U 82025A   18015.50915597 +.00000026 +00000-0 +10224-4 0  9993
2 13113 082.5379 028.1733 0016705 242.3571 271.7062 13.85374762809897
Epoch (UTC): 15 January 2018 12:13:11
Eccentricity: 0.0016705
inclination: 82.5379°
perigee height: 932 km
apogee height: 957 km
right ascension of ascending node: 28.1733°
argument of perigee: 242.3571°
revolutions per day: 13.85374762
mean anomaly at epoch: 271.7062°
orbit number at epoch: 80989

The dashed part of the orbit path shows where the satellite is in the earth's shadow,  

DLR